Tracking 35237 objects as of 6-Sep-2026
HD Live streaming from Space Station
objects crossing your sky now

ATLAS D DEB


ATLAS D DEB is no longer on orbit


NORAD ID: 2238
Int'l Code: 1966-046Q
Launch date: June 1, 1966
Source: United States (US)
Launch site: AIR FORCE EASTERN TEST RANGE (AFETR)
Decay date: 1966-06-22

Note: This is SATELLITE DEBRIS
Your satellite tracking list
Your tracking list is empty




NASA's NSSDC Master Catalog

Two Line Element Set (TLE):
1 02238U 66046  Q 66172.14660391  .00502623 +79755-3 +00000-0 0  9993
2 02238 028.9146 170.0104 0138519 329.4450 029.7975 16.19514394003133
Source of the keplerian elements: AFSPC